QPF
0.05 0.10 0.14 0.11 0.13 0.16 0.13 0.07 0.05 0.04 0.03 0.02 0.01 0.00 0.00 0.00 0.00 0.00 0.00 0.00 0.00 0.00 0.00 0.00 0.00 0.00 0.00 0.00 0.00 0.01 0.01 0.02 0.03 0.03 0.02 0.01 0.01 0.01 0.01 0.01 0.01 0.01 0.01
0.24 0.31 0.39 0.34 0.33 0.31 0.24 0.12 0.05 0.03 0.02 0.01 0.01 0.00 0.00 0.00 0.00 0.00 0.00 0.00 0.00 0.00 0.00 0.00 0.00 0.00 0.00 0.00 0.00 0.01 0.01 0.00 0.01 0.01 0.01 0.01 0.00 0.00 0.00 0.00 0.00 0.00 0.00
0.33 0.52 0.75 0.73 0.59 0.48 0.30 0.13 0.05 0.02 0.01 0.01 0.00 0.00 0.00 0.00 0.00 0.00 0.00 0.00 0.00 0.00 0.00 0.00 0.00 0.00 0.00 0.00 0.00 0.00 0.01 0.01 0.01 0.01 0.02 0.01 0.00 0.00 0.00 0.00 0.00 0.00 0.01
0.44 0.80 1.00 0.99 0.85 0.58 0.25 0.11 0.05 0.02 0.01 0.01 0.01 0.01 0.00 0.00 0.00 0.00 0.00 0.00 0.00 0.00 0.00 0.00 0.00 0.00 0.00 0.00 0.00 0.01 0.01 0.02 0.01 0.01 0.03 0.03 0.03 0.03 0.01 0.01 0.00 0.01 0.01
0.39 0.57 0.63 0.70 0.67 0.48 0.26 0.17 0.09 0.06 0.06 0.04 0.03 0.02 0.01 0.00 0.00 0.00 0.00 0.00 0.00 0.00 0.00 0.00 0.00 0.00 0.00 0.00 0.01 0.01 0.01 0.02 0.03 0.03 0.03 0.04 0.06 0.06 0.04 0.02 0.02 0.04 0.04
0.29 0.40 0.40 0.37 0.34 0.26 0.19 0.14 0.11 0.14 0.12 0.07 0.05 0.05 0.04 0.03 0.02 0.01 0.00 0.00 0.00 0.00 0.00 0.00 0.00 0.00 0.00 0.01 0.01 0.01 0.02 0.04 0.04 0.05 0.05 0.05 0.06 0.08 0.09 0.08 0.06 0.07 0.05
0.24 0.30 0.35 0.34 0.25 0.18 0.13 0.09 0.08 0.09 0.10 0.08 0.07 0.07 0.07 0.06 0.05 0.03 0.01 0.01 0.00 0.00 0.00 0.00 0.00 0.00 0.00 0.00 0.01 0.01 0.02 0.03 0.06 0.06 0.06 0.06 0.06 0.08 0.11 0.11 0.11 0.14 0.13
0.11 0.14 0.17 0.17 0.15 0.10 0.06 0.05 0.04 0.04 0.05 0.04 0.06 0.07 0.09 0.07 0.06 0.08 0.05 0.02 0.01 0.00 0.00 0.00 0.00 0.00 0.00 0.00 0.01 0.01 0.02 0.03 0.05 0.04 0.07 0.07 0.06 0.10 0.13 0.13 0.16 0.17 0.18
0.02 0.03 0.04 0.04 0.04 0.03 0.03 0.03 0.03 0.03 0.03 0.03 0.05 0.06 0.10 0.11 0.10 0.10 0.07 0.05 0.05 0.03 0.01 0.01 0.01 0.01 0.01 0.01 0.01 0.01 0.02 0.03 0.05 0.05 0.07 0.09 0.09 0.13 0.16 0.21 0.23 0.21 0.19
0.01 0.01 0.01 0.01 0.01 0.01 0.02 0.02 0.02 0.02 0.02 0.03 0.04 0.05 0.06 0.09 0.11 0.09 0.09 0.10 0.09 0.07 0.06 0.04 0.04 0.03 0.01 0.01 0.01 0.02 0.02 0.03 0.04 0.06 0.06 0.08 0.10 0.14 0.17 0.20 0.23 0.24 0.24
0.00 0.00 0.00 0.00 0.01 0.01 0.01 0.01 0.01 0.01 0.01 0.02 0.02 0.02 0.03 0.05 0.08 0.10 0.11 0.12 0.12 0.11 0.09 0.07 0.06 0.04 0.03 0.02 0.01 0.01 0.01 0.02 0.02 0.03 0.05 0.08 0.12 0.16 0.18 0.20 0.22 0.25 0.28
0.00 0.00 0.00 0.00 0.00 0.00 0.01 0.01 0.01 0.02 0.02 0.02 0.01 0.01 0.01 0.02 0.03 0.05 0.08 0.11 0.12 0.11 0.11 0.10 0.08 0.06 0.04 0.03 0.02 0.01 0.01 0.01 0.02 0.03 0.05 0.06 0.08 0.12 0.15 0.19 0.21 0.25 0.30
0.00 0.00 0.00 0.00 0.00 0.00 0.00 0.00 0.01 0.01 0.01 0.01 0.01 0.00 0.00 0.00 0.01 0.01 0.03 0.06 0.09 0.10 0.11 0.11 0.10 0.08 0.07 0.06 0.04 0.02 0.01 0.01 0.02 0.03 0.03 0.03 0.06 0.09 0.11 0.14 0.18 0.22 0.30
0.00 0.00 0.00 0.00 0.00 0.00 0.00 0.00 0.00 0.00 0.00 0.00 0.00 0.00 0.00 0.00 0.00 0.00 0.01 0.02 0.05 0.08 0.11 0.12 0.11 0.10 0.09 0.07 0.05 0.03 0.02 0.02 0.02 0.02 0.02 0.02 0.03 0.07 0.10 0.12 0.14 0.16 0.18
0.00 0.00 0.00 0.00 0.00 0.00 0.00 0.00 0.00 0.00 0.00 0.00 0.00 0.01 0.01 0.01 0.01 0.01 0.01 0.01 0.02 0.04 0.07 0.10 0.11 0.12 0.10 0.07 0.06 0.05 0.03 0.03 0.04 0.04 0.02 0.01 0.02 0.03 0.07 0.10 0.12 0.14 0.13
0.00 0.00 0.00 0.00 0.00 0.00 0.00 0.00 0.00 0.00 0.00 0.00 0.01 0.01 0.01 0.02 0.02 0.03 0.03 0.03 0.03 0.04 0.06 0.09 0.11 0.12 0.10 0.09 0.06 0.05 0.03 0.04 0.05 0.06 0.03 0.01 0.01 0.03 0.05 0.07 0.11 0.14 0.13
0.00 0.00 0.00 0.00 0.00 0.00 0.00 0.00 0.00 0.00 0.00 0.00 0.00 0.00 0.01 0.01 0.01 0.01 0.02 0.02 0.02 0.03 0.05 0.07 0.11 0.13 0.15 0.12 0.08 0.05 0.04 0.04 0.06 0.07 0.05 0.03 0.02 0.03 0.03 0.04 0.05 0.08 0.11
0.00 0.00 0.00 0.00 0.00 0.00 0.00 0.00 0.00 0.00 0.00 0.00 0.00 0.00 0.01 0.01 0.01 0.01 0.02 0.02 0.03 0.03 0.04 0.06 0.10 0.14 0.19 0.17 0.11 0.07 0.05 0.05 0.06 0.06 0.04 0.03 0.02 0.02 0.02 0.03 0.04 0.04 0.05
0.00 0.00 0.00 0.00 0.00 0.00 0.00 0.00 0.00 0.00 0.00 0.00 0.00 0.00 0.00 0.00 0.01 0.01 0.03 0.04 0.05 0.04 0.03 0.04 0.07 0.13 0.20 0.21 0.16 0.10 0.07 0.07 0.07 0.06 0.04 0.03 0.03 0.01 0.01 0.03 0.03 0.03 0.03
0.00 0.00 0.00 0.00 0.00 0.00 0.00 0.00 0.00 0.00 0.00 0.00 0.00 0.00 0.00 0.01 0.01 0.02 0.04 0.05 0.06 0.05 0.03 0.02 0.05 0.10 0.19 0.25 0.20 0.13 0.09 0.11 0.10 0.07 0.04 0.02 0.01 0.01 0.01 0.02 0.02 0.02 0.01
0.00 0.00 0.00 0.00 0.00 0.00 0.01 0.01 0.01 0.01 0.01 0.01 0.01 0.01 0.01 0.02 0.02 0.03 0.06 0.07 0.06 0.06 0.06 0.04 0.04 0.07 0.16 0.26 0.25 0.20 0.15 0.14 0.12 0.07 0.03 0.01 0.00 0.00 0.00 0.01 0.02 0.01 0.00
0.00 0.00 0.00 0.00 0.00 0.01 0.02 0.03 0.03 0.02 0.03 0.03 0.03 0.03 0.04 0.03 0.02 0.06 0.10 0.11 0.11 0.09 0.06 0.05 0.05 0.07 0.13 0.24 0.27 0.24 0.19 0.19 0.15 0.08 0.03 0.01 0.01 0.00 0.00 0.01 0.01 0.00 0.00
0.00 0.00 0.00 0.01 0.01 0.02 0.03 0.04 0.03 0.04 0.04 0.05 0.05 0.05 0.06 0.07 0.07 0.08 0.11 0.12 0.12 0.08 0.06 0.07 0.09 0.10 0.14 0.23 0.29 0.27 0.20 0.21 0.17 0.08 0.03 0.01 0.00 0.00 0.00 0.00 0.00 0.00 0.00
0.00 0.00 0.01 0.02 0.03 0.02 0.03 0.04 0.04 0.05 0.07 0.07 0.07 0.07 0.08 0.07 0.08 0.10 0.10 0.09 0.08 0.08 0.09 0.09 0.10 0.13 0.15 0.23 0.30 0.31 0.24 0.23 0.21 0.09 0.02 0.01 0.00 0.00 0.00 0.00 0.00 0.00 0.00
0.00 0.02 0.04 0.05 0.04 0.04 0.04 0.04 0.05 0.08 0.10 0.09 0.09 0.09 0.09 0.08 0.09 0.10 0.10 0.08 0.08 0.07 0.09 0.09 0.10 0.14 0.15 0.24 0.33 0.32 0.29 0.29 0.24 0.11 0.02 0.00 0.00 0.00 0.00 0.00 0.00 0.00 0.00
0.03 0.06 0.07 0.08 0.07 0.06 0.06 0.06 0.08 0.11 0.14 0.13 0.12 0.12 0.11 0.10 0.09 0.10 0.10 0.06 0.03 0.03 0.02 0.03 0.04 0.07 0.11 0.20 0.29 0.34 0.32 0.31 0.25 0.11 0.02 0.00 0.00 0.00 0.00 0.00 0.00 0.00 0.00
MSLP
1002.48 1002.63 1002.81 1003.00 1003.23 1003.51 1003.84 1004.23 1004.69 1005.18 1005.69 1006.19 1006.65 1007.07 1007.44 1007.77 1008.08 1008.37 1008.66 1008.96 1009.26 1009.57 1009.85 1010.10 1010.32 1010.48 1010.60 1010.69 1010.74 1010.76 1010.76 1010.73 1010.64 1010.50 1010.27 1009.96 1009.56 1009.10 1008.60 1008.10 1007.66 1007.31 1007.10
1003.45 1003.67 1003.88 1004.08 1004.27 1004.46 1004.67 1004.93 1005.23 1005.59 1005.97 1006.37 1006.75 1007.10 1007.41 1007.68 1007.92 1008.15 1008.39 1008.65 1008.94 1009.24 1009.54 1009.83 1010.08 1010.29 1010.45 1010.56 1010.62 1010.65 1010.64 1010.60 1010.51 1010.36 1010.14 1009.84 1009.45 1008.97 1008.45 1007.90 1007.39 1006.95 1006.64
1004.92 1005.17 1005.40 1005.57 1005.69 1005.78 1005.86 1005.96 1006.10 1006.30 1006.53 1006.80 1007.06 1007.31 1007.52 1007.70 1007.86 1008.02 1008.19 1008.39 1008.63 1008.91 1009.22 1009.53 1009.81 1010.06 1010.25 1010.38 1010.46 1010.49 1010.48 1010.44 1010.36 1010.23 1010.04 1009.77 1009.41 1008.98 1008.47 1007.92 1007.37 1006.88 1006.49
1006.62 1006.88 1007.09 1007.22 1007.27 1007.25 1007.20 1007.15 1007.14 1007.18 1007.27 1007.40 1007.55 1007.68 1007.79 1007.87 1007.93 1007.99 1008.08 1008.20 1008.39 1008.63 1008.92 1009.23 1009.53 1009.80 1010.01 1010.16 1010.24 1010.28 1010.27 1010.24 1010.18 1010.08 1009.94 1009.73 1009.44 1009.07 1008.61 1008.10 1007.57 1007.06 1006.61
1008.26 1008.49 1008.66 1008.74 1008.72 1008.61 1008.46 1008.30 1008.17 1008.09 1008.07 1008.09 1008.14 1008.17 1008.19 1008.17 1008.13 1008.09 1008.08 1008.12 1008.23 1008.42 1008.67 1008.96 1009.25 1009.52 1009.73 1009.89 1009.98 1010.02 1010.01 1009.99 1009.95 1009.89 1009.80 1009.66 1009.46 1009.17 1008.80 1008.35 1007.86 1007.37 1006.91
1009.59 1009.77 1009.89 1009.92 1009.84 1009.67 1009.46 1009.23 1009.04 1008.90 1008.81 1008.77 1008.75 1008.72 1008.66 1008.57 1008.44 1008.30 1008.20 1008.15 1008.17 1008.28 1008.47 1008.71 1008.97 1009.22 1009.42 1009.57 1009.65 1009.68 1009.68 1009.66 1009.64 1009.62 1009.58 1009.51 1009.39 1009.19 1008.91 1008.55 1008.13 1007.69 1007.26
1010.48 1010.60 1010.66 1010.64 1010.53 1010.34 1010.11 1009.87 1009.67 1009.52 1009.43 1009.38 1009.34 1009.28 1009.17 1009.02 1008.82 1008.60 1008.40 1008.26 1008.19 1008.21 1008.32 1008.49 1008.69 1008.90 1009.07 1009.19 1009.25 1009.27 1009.27 1009.25 1009.24 1009.23 1009.23 1009.21 1009.15 1009.04 1008.84 1008.57 1008.24 1007.87 1007.51
1010.94 1010.98 1010.98 1010.93 1010.81 1010.63 1010.42 1010.23 1010.07 1009.96 1009.91 1009.88 1009.85 1009.78 1009.66 1009.47 1009.22 1008.94 1008.66 1008.42 1008.26 1008.18 1008.20 1008.28 1008.41 1008.55 1008.67 1008.75 1008.79 1008.79 1008.76 1008.74 1008.72 1008.72 1008.73 1008.74 1008.72 1008.66 1008.53 1008.34 1008.10 1007.82 1007.55
1011.07 1011.03 1010.99 1010.92 1010.80 1010.66 1010.51 1010.38 1010.29 1010.25 1010.25 1010.26 1010.26 1010.21 1010.09 1009.87 1009.59 1009.26 1008.91 1008.59 1008.34 1008.17 1008.09 1008.08 1008.13 1008.19 1008.25 1008.28 1008.28 1008.25 1008.21 1008.16 1008.13 1008.12 1008.12 1008.13 1008.12 1008.08 1007.99 1007.86 1007.70 1007.52 1007.36
1011.04 1010.95 1010.87 1010.79 1010.69 1010.59 1010.50 1010.43 1010.41 1010.43 1010.49 1010.54 1010.56 1010.52 1010.40 1010.18 1009.87 1009.50 1009.11 1008.73 1008.41 1008.16 1007.99 1007.89 1007.85 1007.84 1007.83 1007.81 1007.77 1007.71 1007.64 1007.57 1007.52 1007.48 1007.46 1007.44 1007.42 1007.37 1007.30 1007.21 1007.10 1007.01 1006.95
1011.02 1010.89 1010.79 1010.70 1010.62 1010.54 1010.50 1010.48 1010.50 1010.56 1010.63 1010.70 1010.72 1010.68 1010.55 1010.31 1009.99 1009.61 1009.20 1008.79 1008.42 1008.11 1007.88 1007.71 1007.59 1007.51 1007.44 1007.37 1007.29 1007.21 1007.12 1007.03 1006.96 1006.89 1006.84 1006.79 1006.74 1006.67 1006.59 1006.51 1006.44 1006.41 1006.45
1011.09 1010.93 1010.81 1010.72 1010.64 1010.58 1010.55 1010.54 1010.57 1010.62 1010.67 1010.71 1010.70 1010.63 1010.48 1010.24 1009.92 1009.54 1009.13 1008.72 1008.35 1008.02 1007.75 1007.53 1007.36 1007.23 1007.11 1007.00 1006.89 1006.79 1006.69 1006.60 1006.51 1006.43 1006.36 1006.28 1006.19 1006.10 1006.00 1005.91 1005.86 1005.88 1005.98
1011.25 1011.07 1010.93 1010.82 1010.72 1010.65 1010.60 1010.57 1010.56 1010.56 1010.55 1010.53 1010.46 1010.34 1010.16 1009.91 1009.60 1009.25 1008.88 1008.51 1008.16 1007.85 1007.57 1007.34 1007.14 1006.97 1006.82 1006.69 1006.56 1006.46 1006.36 1006.28 1006.21 1006.13 1006.06 1005.97 1005.87 1005.75 1005.63 1005.54 1005.49 1005.52 1005.66
1011.40 1011.20 1011.03 1010.89 1010.77 1010.67 1010.57 1010.48 1010.40 1010.32 1010.22 1010.11 1009.97 1009.79 1009.58 1009.32 1009.04 1008.74 1008.43 1008.13 1007.84 1007.58 1007.33 1007.11 1006.91 1006.72 1006.55 1006.40 1006.28 1006.18 1006.11 1006.05 1006.02 1005.98 1005.93 1005.86 1005.77 1005.66 1005.54 1005.44 1005.39 1005.42 1005.57
1011.42 1011.19 1010.99 1010.82 1010.65 1010.50 1010.35 1010.19 1010.02 1009.84 1009.65 1009.44 1009.22 1008.99 1008.74 1008.50 1008.26 1008.02 1007.80 1007.59 1007.38 1007.19 1006.99 1006.80 1006.61 1006.42 1006.25 1006.10 1005.98 1005.90 1005.86 1005.86 1005.88 1005.90 1005.92 1005.90 1005.85 1005.78 1005.68 1005.59 1005.55 1005.59 1005.73
1011.22 1010.95 1010.70 1010.48 1010.28 1010.07 1009.86 1009.64 1009.39 1009.13 1008.85 1008.56 1008.27 1007.99 1007.73 1007.50 1007.31 1007.15 1007.02 1006.90 1006.79 1006.67 1006.54 1006.39 1006.21 1006.03 1005.86 1005.71 1005.61 1005.56 1005.56 1005.62 1005.72 1005.83 1005.93 1006.00 1006.03 1006.02 1005.98 1005.93 1005.91 1005.95 1006.08
1010.74 1010.42 1010.13 1009.87 1009.63 1009.39 1009.13 1008.86 1008.56 1008.23 1007.89 1007.54 1007.21 1006.90 1006.64 1006.44 1006.29 1006.20 1006.15 1006.12 1006.10 1006.05 1005.97 1005.85 1005.70 1005.52 1005.35 1005.21 1005.12 1005.09 1005.15 1005.28 1005.45 1005.66 1005.87 1006.05 1006.18 1006.27 1006.31 1006.33 1006.36 1006.42 1006.55
1010.02 1009.65 1009.32 1009.02 1008.76 1008.50 1008.23 1007.93 1007.61 1007.26 1006.89 1006.51 1006.16 1005.84 1005.59 1005.41 1005.30 1005.26 1005.27 1005.30 1005.33 1005.34 1005.30 1005.20 1005.06 1004.89 1004.72 1004.58 1004.50 1004.51 1004.60 1004.79 1005.05 1005.36 1005.67 1005.97 1006.23 1006.43 1006.58 1006.69 1006.78 1006.89 1007.03
1009.18 1008.75 1008.38 1008.07 1007.79 1007.53 1007.27 1006.99 1006.67 1006.33 1005.96 1005.59 1005.24 1004.92 1004.68 1004.51 1004.42 1004.40 1004.44 1004.50 1004.56 1004.58 1004.56 1004.48 1004.34 1004.18 1004.01 1003.87 1003.81 1003.83 1003.96 1004.20 1004.53 1004.91 1005.33 1005.74 1006.11 1006.43 1006.70 1006.91 1007.09 1007.26 1007.44
1008.33 1007.85 1007.45 1007.13 1006.85 1006.61 1006.37 1006.12 1005.84 1005.53 1005.20 1004.85 1004.51 1004.20 1003.95 1003.77 1003.68 1003.66 1003.69 1003.74 1003.80 1003.83 1003.81 1003.73 1003.61 1003.45 1003.29 1003.16 1003.11 1003.15 1003.30 1003.57 1003.95 1004.39 1004.88 1005.38 1005.85 1006.28 1006.65 1006.97 1007.25 1007.50 1007.73
1007.57 1007.06 1006.64 1006.30 1006.03 1005.81 1005.61 1005.40 1005.16 1004.90 1004.60 1004.28 1003.95 1003.65 1003.39 1003.20 1003.07 1003.02 1003.02 1003.05 1003.08 1003.10 1003.08 1003.01 1002.90 1002.77 1002.63 1002.53 1002.49 1002.55 1002.72 1003.00 1003.39 1003.87 1004.39 1004.94 1005.48 1005.99 1006.46 1006.87 1007.24 1007.58 1007.89
1006.96 1006.42 1005.98 1005.63 1005.36 1005.15 1004.97 1004.79 1004.60 1004.37 1004.10 1003.81 1003.50 1003.19 1002.92 1002.69 1002.53 1002.43 1002.39 1002.38 1002.40 1002.41 1002.40 1002.36 1002.29 1002.19 1002.10 1002.04 1002.03 1002.11 1002.28 1002.57 1002.95 1003.42 1003.94 1004.51 1005.08 1005.64 1006.17 1006.66 1007.11 1007.53 1007.91
1006.49 1005.93 1005.46 1005.09 1004.80 1004.57 1004.39 1004.23 1004.05 1003.85 1003.61 1003.33 1003.03 1002.72 1002.43 1002.17 1001.97 1001.83 1001.74 1001.72 1001.72 1001.75 1001.77 1001.78 1001.78 1001.75 1001.73 1001.73 1001.77 1001.87 1002.04 1002.31 1002.66 1003.09 1003.58 1004.12 1004.69 1005.27 1005.83 1006.37 1006.89 1007.38 1007.83
1006.14 1005.54 1005.03 1004.61 1004.27 1004.01 1003.79 1003.61 1003.42 1003.22 1002.99 1002.72 1002.42 1002.10 1001.80 1001.52 1001.29 1001.13 1001.03 1001.00 1001.03 1001.09 1001.18 1001.27 1001.36 1001.44 1001.52 1001.59 1001.68 1001.81 1001.98 1002.22 1002.52 1002.89 1003.33 1003.81 1004.35 1004.90 1005.48 1006.05 1006.61 1007.15 1007.66
1005.85 1005.20 1004.62 1004.13 1003.71 1003.37 1003.09 1002.85 1002.63 1002.41 1002.16 1001.89 1001.59 1001.28 1000.97 1000.69 1000.47 1000.30 1000.22 1000.22 1000.30 1000.43 1000.61 1000.82 1001.03 1001.23 1001.41 1001.57 1001.73 1001.88 1002.05 1002.25 1002.50 1002.79 1003.15 1003.57 1004.04 1004.56 1005.12 1005.70 1006.29 1006.88 1007.44
1005.59 1004.87 1004.21 1003.61 1003.08 1002.63 1002.26 1001.94 1001.65 1001.38 1001.12 1000.84 1000.54 1000.24 999.96 999.70 999.50 999.38 999.34 999.40 999.55 999.79 1000.08 1000.41 1000.75 1001.07 1001.37 1001.62 1001.84 1002.02 1002.18 1002.35 1002.53 1002.75 1003.02 1003.36 1003.76 1004.24 1004.77 1005.35 1005.95 1006.56 1007.16
Thickness
5829 5826 5815 5810 5807 5801 5795 5792 5788 5785 5781 5776 5771 5767 5764 5763 5762 5761 5757 5753 5749 5746 5743 5741 5740 5739 5737 5737 5736 5734 5731 5730 5731 5729 5729 5734 5738 5740 5742 5744 5745 5747 5749
5803 5797 5792 5783 5787 5784 5779 5777 5775 5774 5772 5770 5766 5762 5759 5758 5757 5755 5752 5749 5745 5742 5741 5738 5735 5735 5733 5732 5731 5729 5726 5725 5725 5720 5717 5717 5723 5731 5740 5743 5744 5746 5748
5777 5768 5760 5751 5751 5757 5760 5759 5763 5763 5763 5762 5760 5757 5753 5749 5748 5746 5745 5744 5742 5739 5736 5734 5732 5730 5729 5727 5727 5725 5722 5718 5719 5717 5711 5707 5709 5716 5727 5734 5738 5742 5744
5754 5744 5738 5733 5730 5733 5741 5746 5751 5752 5752 5752 5749 5746 5742 5739 5740 5740 5741 5740 5738 5736 5734 5731 5729 5727 5725 5724 5723 5724 5720 5716 5712 5713 5712 5709 5707 5701 5706 5716 5725 5731 5735
5739 5729 5727 5723 5722 5723 5725 5731 5735 5738 5739 5739 5738 5736 5734 5734 5736 5736 5735 5733 5734 5733 5731 5729 5726 5723 5721 5720 5719 5717 5716 5713 5710 5708 5706 5704 5703 5701 5695 5698 5707 5715 5724
5731 5724 5722 5720 5718 5720 5717 5717 5720 5723 5724 5726 5727 5726 5724 5724 5724 5724 5724 5725 5727 5728 5729 5727 5723 5720 5717 5716 5715 5714 5713 5711 5709 5706 5703 5699 5696 5694 5693 5692 5695 5698 5709
5726 5721 5717 5714 5712 5710 5708 5708 5709 5709 5709 5711 5712 5714 5715 5715 5714 5715 5716 5718 5719 5721 5723 5723 5719 5715 5713 5712 5712 5711 5710 5709 5707 5705 5702 5700 5697 5695 5692 5689 5689 5691 5698
5721 5715 5710 5707 5704 5701 5699 5697 5695 5695 5696 5697 5697 5699 5700 5702 5703 5705 5708 5711 5713 5715 5716 5715 5713 5711 5709 5708 5708 5707 5707 5707 5706 5704 5702 5699 5697 5695 5692 5688 5685 5684 5688
5712 5707 5702 5697 5693 5690 5687 5685 5684 5683 5683 5683 5683 5684 5685 5686 5689 5692 5696 5699 5701 5704 5706 5707 5706 5705 5704 5703 5702 5702 5703 5703 5702 5702 5701 5698 5697 5695 5693 5691 5687 5681 5679
5700 5696 5692 5688 5683 5679 5675 5673 5671 5669 5668 5668 5668 5669 5670 5671 5674 5677 5679 5682 5686 5689 5692 5694 5695 5696 5697 5697 5697 5697 5699 5699 5699 5699 5698 5696 5696 5694 5693 5691 5689 5686 5682
5686 5682 5679 5676 5672 5668 5663 5658 5655 5653 5652 5651 5651 5651 5653 5655 5657 5660 5663 5666 5670 5674 5678 5681 5683 5686 5688 5690 5691 5692 5693 5694 5695 5695 5695 5694 5694 5692 5691 5690 5689 5687 5684
5673 5669 5666 5661 5656 5651 5646 5642 5638 5635 5634 5633 5633 5633 5634 5635 5638 5642 5645 5649 5653 5658 5663 5667 5671 5675 5679 5682 5684 5685 5688 5688 5689 5690 5690 5689 5690 5688 5688 5688 5687 5686 5684
5660 5656 5652 5646 5640 5634 5629 5625 5621 5619 5617 5616 5615 5614 5614 5615 5618 5621 5625 5629 5634 5640 5646 5652 5657 5662 5667 5671 5675 5678 5681 5682 5683 5685 5684 5684 5684 5683 5683 5683 5684 5684 5682
5646 5642 5637 5631 5624 5617 5612 5607 5604 5602 5600 5599 5598 5597 5596 5598 5600 5603 5606 5611 5615 5621 5627 5635 5641 5647 5654 5660 5665 5669 5673 5675 5676 5678 5678 5678 5677 5676 5677 5678 5679 5679 5675
5632 5626 5617 5609 5602 5596 5591 5587 5583 5581 5579 5578 5578 5579 5580 5581 5583 5585 5589 5593 5597 5603 5609 5616 5624 5632 5639 5647 5653 5657 5663 5666 5668 5669 5670 5670 5669 5669 5670 5672 5673 5671 5667
5615 5605 5595 5587 5581 5576 5572 5569 5566 5565 5563 5562 5561 5562 5563 5564 5566 5568 5571 5575 5579 5584 5591 5597 5605 5614 5623 5631 5637 5644 5651 5656 5659 5659 5660 5660 5660 5660 5662 5664 5665 5664 5660
5593 5583 5576 5570 5566 5563 5561 5560 5559 5557 5555 5554 5554 5553 5554 5555 5555 5556 5558 5560 5562 5566 5572 5579 5587 5596 5605 5613 5621 5628 5636 5644 5648 5650 5651 5653 5652 5652 5653 5653 5654 5652 5650
5576 5571 5567 5564 5561 5559 5557 5555 5552 5550 5548 5546 5546 5545 5546 5547 5548 5549 5549 5548 5548 5549 5553 5558 5567 5578 5588 5597 5607 5613 5621 5630 5636 5641 5643 5643 5643 5644 5645 5644 5643 5641 5639
5569 5566 5563 5560 5558 5554 5552 5549 5545 5541 5539 5537 5536 5536 5537 5538 5539 5540 5541 5540 5539 5538 5539 5544 5551 5560 5570 5579 5590 5598 5607 5616 5624 5630 5634 5635 5635 5635 5637 5636 5633 5631 5628
5564 5561 5559 5557 5553 5550 5546 5540 5536 5532 5529 5528 5527 5527 5527 5528 5530 5532 5532 5532 5531 5531 5531 5535 5540 5546 5554 5562 5572 5581 5593 5604 5613 5619 5624 5627 5627 5626 5628 5628 5627 5623 5620
5562 5559 5556 5551 5547 5543 5537 5531 5526 5522 5519 5518 5517 5517 5518 5518 5520 5522 5523 5523 5523 5523 5525 5527 5531 5536 5542 5548 5556 5565 5577 5590 5601 5609 5613 5616 5616 5618 5619 5620 5620 5618 5616
5560 5555 5550 5546 5540 5534 5526 5521 5516 5512 5509 5508 5507 5508 5509 5510 5514 5515 5516 5516 5516 5516 5518 5521 5524 5529 5534 5537 5544 5552 5562 5574 5586 5598 5606 5607 5607 5609 5610 5611 5611 5610 5610
5555 5549 5542 5536 5529 5521 5513 5507 5505 5500 5498 5497 5499 5500 5501 5503 5504 5506 5507 5509 5510 5511 5514 5517 5521 5524 5528 5529 5533 5541 5551 5563 5574 5586 5595 5597 5598 5600 5602 5601 5602 5603 5604
5547 5539 5530 5522 5515 5507 5500 5495 5492 5489 5488 5488 5490 5492 5494 5496 5498 5499 5501 5503 5505 5507 5510 5513 5517 5520 5522 5523 5526 5533 5542 5553 5566 5576 5582 5586 5589 5594 5594 5593 5594 5598 5600
5536 5526 5515 5507 5501 5495 5489 5485 5481 5478 5479 5481 5483 5485 5488 5490 5492 5495 5497 5499 5502 5504 5506 5508 5511 5514 5516 5519 5522 5528 5537 5548 5558 5564 5572 5578 5582 5586 5587 5588 5590 5593 5595
5524 5514 5504 5497 5491 5485 5481 5478 5474 5472 5472 5473 5476 5479 5482 5485 5488 5491 5494 5497 5499 5500 5502 5504 5507 5509 5509 5510 5514 5520 5529 5539 5547 5556 5567 5575 5581 5583 5584 5585 5587 5589 5590